Regional Weather Roundup
Issued by NWS

Home | Current Version | Previous Version | Graphics & Text | Print | Product List | Glossary Off
Versions: 1 2 3 4 5 6 7 8 9 10 11 12 13 14 15 16 17 18 19 20 21 22 23 24 25 26 27 28 29 30 31 32 33 34 35 36 37 38 39 40 41 42 43 44 45 46 47 48 49 50

000
ASUS43 KLSX 211607
RWRMO

WEATHER SUMMARY FOR MISSOURI
NATIONAL WEATHER SERVICE SPRINGFIELD MO
1100 AM CDT SAT APR 21 2018

NOTE: "FAIR" INDICATES FEW OR NO CLOUDS BELOW 12,000 FEET WITH NO
       SIGNIFICANT WEATHER AND/OR OBSTRUCTIONS TO VISIBILITY.
       CURRENT SKY AND/OR WEATHER CONDITIONS ARE NOT AVAILABLE FOR
       CHILLICOTHE AND FARMINGTON.

MOZ001>031-035>038-043-044-053-054-211700-
...NORTHERN AND WESTERN MISSOURI...

CITY           SKY/WX    TMP DP  RH WIND       PRES   REMARKS
KANSAS CTY INT CLOUDY    51  28  41 SE12      30.26R
KANSAS C DTWN  LGT RAIN  52  30  43 E5        30.25R
LEE`S SUMMIT   PTSUNNY   52  30  43 E7        30.24R
ST JOSEPH      CLOUDY    52  31  44 SE6       30.27R
CHILLICOTHE      N/A     56  27  32 E7        30.29R
KIRKSVILLE     CLOUDY    54  31  41 E10       30.31F

$$
MOZ066>068-077>081-088>096-101>105-211700-
...SOUTHWEST MISSOURI...

CITY           SKY/WX    TMP DP  RH WIND       PRES   REMARKS
SPRINGFIELD    MOSUNNY   56  34  43 SE13      30.19S
JOPLIN         CLOUDY    58  39  49 E13       30.16F
BRANSON        CLOUDY    54  36  50 E9        30.20S

$$
MOZ032>034-039>042-045>050-055>058-069>072-211700-
...CENTRAL MISSOURI...

CITY           SKY/WX    TMP DP  RH WIND       PRES   REMARKS
COLUMBIA       CLOUDY    58  28  32 SE14G23   30.25F
JEFFERSON CITY CLOUDY    58  28  32 E14       30.25F
ROLLA          PTSUNNY   60  30  32 E13       30.26F
SEDALIA        CLOUDY    57  32  38 E12       30.26R
WHITEMAN AFB   CLOUDY    56  30  37 SE8       30.21R
WARRENSBURG    CLOUDY    54  30  40 E5        30.25R
OSAGE BEACH    CLOUDY    60  30  32 SE8G18    30.22F

$$
MOZ051-052-059>065-211700-
...EAST CENTRAL MISSOURI...

CITY           SKY/WX    TMP DP  RH WIND       PRES   REMARKS
ST LOUIS INTL  CLOUDY    59  30  33 E10       30.34F
SPIRIT OF STL  PTSUNNY   62  32  32 E8G17     30.32F
ST CHARLES     CLOUDY    59  32  36 E14       30.34F

$$
MOZ072>076-082>087-097>100-106>115-211700-
...SOUTH CENTRAL AND SOUTHEAST MISSOURI...

CITY           SKY/WX    TMP DP  RH WIND       PRES   REMARKS
CAPE GIRARDEAU FAIR      62  37  39 E6        30.29F
FARMINGTON     CLOUDY    59  35  40 NE6       30.30F
POPLAR BLUFF   FAIR      62  39  42 E6        30.28S
WEST PLAINS    MOSUNNY   58  31  35 E13       30.22F

$$



USA.gov is the U.S. government's official web portal to all federal, state and local government web resources and services.